Weather Roundup
Issued by NWS

Home | Current Version | Previous Version | Graphics & Text | Print | Product List | Glossary Off
Versions: 1 2 3 4 5 6 7 8 9 10 11 12 13 14 15 16 17 18 19 20 21 22 23 24 25 26 27 28 29 30 31 32 33 34 35 36 37 38 39 40 41 42 43 44 45 46 47 48 49 50

724
NZUS93 KARX 291810
HRRWXR

CURRENT HOURLY OBSERVATIONS ACROSS
MUCH OF THE UPPER MISSISSIPPI VALLEY
NATIONAL WEATHER SERVICE LA CROSSE WI
100 PM CDT FRI APR 29 2016


...SOUTHEAST MINNESOTA...


CITY           SKY/WX    TMP DP  RH WIND       PRES   REMARKS
ROCHESTER      CLOUDY    46  39  76 E6        30.15S
ROCHESTER/MAYO CLOUDY    47  37  69 E8        30.14S
WINONA         CLOUDY    48  39  71 NE3       30.16F
AUSTIN         CLOUDY    46  37  71 E14       30.14S
ALBERT LEA     CLOUDY    48  39  71 E9        30.13F
DODGE CENTER   PTSUNNY   52  41  66 NE6       30.13S
PRESTON        CLOUDY    45  36  72 NE7       30.15R
OWATONNA       PTSUNNY   52  39  62 NE10      30.13F
FARIBAULT      MOSUNNY   52  39  62 N6        30.14S
$$

...ELSEWHERE IN MINNESOTA...


CITY           SKY/WX    TMP DP  RH WIND       PRES   REMARKS
MINNEAPOLIS    SUNNY     54  34  46 NE12      30.14F
INTNL FALLS    MOSUNNY   53  31  42 VRB7      30.21F
DULUTH         MOSUNNY   50  30  46 E13       30.17F
RED WING       MOSUNNY   55  36  47 E9        30.12F
REDWOOD FALLS  PTSUNNY   52  38  58 NE10      30.14F
MANKATO        PTSUNNY   52  37  58 NE8G18    30.14S
WORTHINGTON    CLOUDY    46  37  71 NE17      30.13F
FAIRMONT       PTSUNNY   48  37  66 NE10G16   30.13F
$$

...SOUTHWEST WISCONSIN...


CITY           SKY/WX    TMP DP  RH WIND       PRES   REMARKS
LA CROSSE      CLOUDY    51  36  56 VRB5      30.14S
PRAIRIE DU CHI CLOUDY    50  35  55 N7        30.12S
BOSCOBEL       PTSUNNY   53  36  52 NE8       30.12F
LONE ROCK      CLOUDY    51  38  60 E8        30.13F
PLATTEVILLE    CLOUDY    48  39  72 NE9       30.11S
FORT MC COY    CLOUDY    49  38  64 CALM      30.15R
CAMP DOUGLAS   CLOUDY    50  45  81 NE8       30.13R
MAUSTON-NEW LI CLOUDY    49  37  64 E3        30.14R
VIROQUA        CLOUDY    47  38  69 NE10G17   30.13S
WIS DELLS      CLOUDY    48  35  61 NE7       30.13R
$$

...ELSEWHERE IN WISCONSIN...


CITY           SKY/WX    TMP DP  RH WIND       PRES   REMARKS
MILWAUKEE      PTSUNNY   45  37  73 N16       30.10F
MADISON        PTSUNNY   50  39  66 NE12      30.10F
GREEN BAY      PTSUNNY   53  31  42 NE15      30.13S
EAU CLAIRE     PTSUNNY   54  36  50 E5        30.13S
BLACK RVR FLS  CLOUDY    50  37  60 NE7       30.14S
MEDFORD        PTSUNNY   49  36  61 E6        30.13F
WAUSAU         PTSUNNY   54  35  48 E8        30.11R
WIS RAPIDS     CLOUDY    51  33  50 VRB3      30.14R
MARSHFIELD     PTSUNNY   51  37  58 N7G18     30.12R
RICE LAKE      SUNNY     55  29  37 NW8G18    30.15S
$$

...NORTHEAST IOWA...


CITY           SKY/WX    TMP DP  RH WIND       PRES   REMARKS
WATERLOO       CLOUDY    48  37  65 NE9       30.11S
DUBUQUE        CLOUDY    46  38  73 NE8       30.11S
DECORAH        CLOUDY    46  37  71 N9        30.12S
MASON CITY     CLOUDY    45  39  79 E15       30.14F
CHARLES CITY   CLOUDY    46  41  81 NE13      30.13F
OELWEIN        CLOUDY    46  39  76 NE10      30.12S
$$

...ELSEWHERE IN IOWA...


CITY           SKY/WX    TMP DP  RH WIND       PRES   REMARKS
DES MOINES     CLOUDY    50  41  71 NE9       30.08F
IOWA CITY      CLOUDY    48  41  76 E8        30.12F
FORT DODGE     CLOUDY    45  37  76 NE12      30.13S
MARSHALLTOWN   CLOUDY    47  39  74 E7        30.11F
CEDAR RAPIDS   CLOUDY    47  42  83 E7        30.10F
$$

...NORTHERN ILLINOIS...


CITY           SKY/WX    TMP DP  RH WIND       PRES   REMARKS
CHICAGO-OHARE  CLOUDY    46  38  73 NE9       30.11R
CHICAGO-MIDWAY CLOUDY    50  39  66 NE10      30.10R
MOLINE         CLOUDY    52  41  66 MISG      30.10F
ROCKFORD       CLOUDY    47  38  71 E3        30.14R
PEORIA         CLOUDY    54  44  69 NE7       30.08F
$$

NOTE: "FAIR" INDICATES FEW OR NO CLOUDS BELOW 12,000 FEET WITH NO
SIGNIFICANT WEATHER AND/OR OBSTRUCTIONS TO VISIBILITY. WIND
SPEEDS ARE IN MILES-PER-HOUR.




USA.gov is the U.S. government's official web portal to all federal, state and local government web resources and services.